| time (UTC) | temp F | wind direction | speed knots | gust knots | rain 1hr in | rain 24hr in | rain mn in | humidity % | barometer mb |
| 20260506134559 | 51 | 308 | 0.9 | 3.5 | 0.00 | 0.00 | 0.00 | 91 | 1019.2 |
| 20260506134018 | 51 | 294 | 0.9 | 3.5 | 0.00 | 0.00 | 0.00 | 91 | 1019.1 |
| 20260506133519 | 51 | 301 | 0.9 | 3.5 | 0.00 | 0.00 | 0.00 | 91 | 1019.1 |
| 20260506133018 | 50 | 298 | 0.0 | 1.7 | 0.00 | 0.00 | 0.00 | 91 | 1019.1 |
| 20260506132516 | 50 | 311 | 0.9 | 1.7 | 0.00 | 0.00 | 0.00 | 91 | 1019.0 |
| 20260506132019 | 50 | 292 | 0.9 | 1.7 | 0.00 | 0.00 | 0.00 | 91 | 1019.0 |
| 20260506131516 | 50 | 319 | 0.0 | 1.7 | 0.00 | 0.00 | 0.00 | 91 | 1019.0 |
| 20260506131016 | 50 | 323 | 0.0 | 0.9 | 0.00 | 0.00 | 0.00 | 91 | 1018.9 |
| 20260506130518 | 50 | 342 | 0.0 | 0.9 | 0.00 | 0.00 | 0.00 | 91 | 1018.9 |
| 20260506130018 | 50 | 310 | 0.0 | 0.9 | 0.00 | 0.00 | 0.00 | 91 | 1018.8 |
| 20260506125516 | 51 | 322 | 0.0 | 0.9 | 0.00 | 0.00 | 0.00 | 91 | 1018.8 |
| 20260506125016 | 51 | 302 | 0.0 | 1.7 | 0.00 | 0.00 | 0.00 | 91 | 1018.7 |
| 20260506124556 | 51 | 310 | 0.0 | 2.6 | 0.00 | 0.00 | 0.00 | 91 | 1018.7 |
| 20260506124016 | 51 | 324 | 0.0 | 1.7 | 0.00 | 0.00 | 0.00 | 91 | 1018.6 |
| 20260506123516 | 51 | 301 | 0.9 | 3.5 | 0.00 | 0.00 | 0.00 | 91 | 1018.6 |
| 20260506123016 | 51 | 353 | 0.0 | 3.5 | 0.00 | 0.00 | 0.00 | 91 | 1018.6 |
| 20260506122516 | 51 | 326 | 0.9 | 3.5 | 0.00 | 0.00 | 0.00 | 91 | 1018.5 |
| 20260506122036 | 51 | 307 | 0.9 | 3.5 | 0.00 | 0.00 | 0.00 | 91 | 1018.5 |
| 20260506121517 | 51 | 314 | 0.9 | 3.5 | 0.00 | 0.00 | 0.00 | 91 | 1018.4 |
| 20260506121016 | 51 | 313 | 0.9 | 3.5 | 0.00 | 0.00 | 0.00 | 91 | 1018.4 |
| 20260506120537 | 51 | 321 | 0.9 | 1.7 | 0.00 | 0.00 | 0.00 | 91 | 1018.4 |
| 20260506120037 | 51 | 301 | 0.0 | 0.9 | 0.00 | 0.00 | 0.00 | 91 | 1018.5 |
| 20260506115517 | 51 | 344 | 0.0 | 0.9 | 0.00 | 0.00 | 0.00 | 91 | 1018.5 |
| 20260506115017 | 51 | 50 | 0.0 | 1.7 | 0.00 | 0.00 | 0.00 | 91 | 1018.4 |
| 20260506114517 | 51 | 303 | 0.9 | 3.5 | 0.00 | 0.00 | 0.00 | 91 | 1018.4 |
| 20260506114017 | 51 | 277 | 0.0 | 0.9 | 0.00 | 0.00 | 0.00 | 90 | 1018.4 |
| 20260506113517 | 51 | 323 | 0.0 | 1.7 | 0.00 | 0.00 | 0.00 | 90 | 1018.3 |
| 20260506113037 | 51 | 332 | 0.0 | 0.9 | 0.00 | 0.00 | 0.00 | 90 | 1018.3 |
| 20260506112517 | 51 | 342 | 0.0 | 0.9 | 0.00 | 0.00 | 0.00 | 90 | 1018.3 |
| 20260506112017 | 51 | 307 | 0.0 | 0.9 | 0.00 | 0.00 | 0.00 | 90 | 1018.3 |
| 20260506111517 | 52 | 323 | 0.0 | 0.9 | 0.00 | 0.00 | 0.00 | 89 | 1018.3 |
| 20260506111017 | 52 | 8 | 0.0 | 0.9 | 0.00 | 0.00 | 0.00 | 89 | 1018.2 |
| 20260506110518 | 52 | 27 | 0.9 | 1.7 | 0.00 | 0.00 | 0.00 | 90 | 1018.1 |
| 20260506110017 | 52 | 10 | 0.9 | 1.7 | 0.00 | 0.00 | 0.00 | 90 | 1018.1 |
| 20260506105517 | 52 | 354 | 0.0 | 2.6 | 0.00 | 0.00 | 0.00 | 90 | 1018.2 |
| 20260506105017 | 52 | 8 | 0.9 | 0.9 | 0.00 | 0.00 | 0.00 | 90 | 1018.1 |
| 20260506104518 | 52 | 360 | 0.9 | 2.6 | 0.00 | 0.00 | 0.00 | 89 | 1018.1 |
| 20260506104018 | 52 | 353 | 0.0 | 0.9 | 0.00 | 0.00 | 0.00 | 89 | 1018.1 |
| 20260506103517 | 52 | 319 | 0.0 | 0.9 | 0.00 | 0.00 | 0.00 | 89 | 1018.1 |
| 20260506103018 | 52 | 330 | 0.0 | 3.5 | 0.00 | 0.00 | 0.00 | 88 | 1018.1 |
| 20260506102518 | 53 | 322 | 0.0 | 1.7 | 0.00 | 0.00 | 0.00 | 88 | 1018.1 |
| 20260506102018 | 53 | 349 | 0.0 | 1.7 | 0.00 | 0.00 | 0.00 | 88 | 1018.1 |
| 20260506101538 | 53 | 350 | 0.0 | 1.7 | 0.00 | 0.00 | 0.00 | 88 | 1018.1 |
| 20260506101038 | 53 | 312 | 0.0 | 0.9 | 0.00 | 0.00 | 0.00 | 88 | 1018.1 |
| 20260506100518 | 53 | 293 | 0.0 | 0.9 | 0.00 | 0.00 | 0.00 | 88 | 1018.0 |
| 20260506100018 | 53 | 295 | 0.9 | 1.7 | 0.00 | 0.00 | 0.00 | 88 | 1018.0 |
| 20260506095519 | 53 | 310 | 0.0 | 0.9 | 0.00 | 0.00 | 0.00 | 88 | 1017.9 |
| 20260506095018 | 53 | 307 | 0.0 | 0.9 | 0.00 | 0.00 | 0.00 | 88 | 1017.9 |
| 20260506094519 | 53 | 293 | 0.9 | 1.7 | 0.00 | 0.00 | 0.00 | 88 | 1017.8 |
| 20260506094018 | 53 | 289 | 0.9 | 1.7 | 0.00 | 0.00 | 0.00 | 89 | 1017.8 |
| 20260506093518 | 53 | 311 | 0.0 | 0.9 | 0.00 | 0.00 | 0.00 | 89 | 1017.9 |
| 20260506093036 | 53 | 316 | 0.0 | 0.9 | 0.00 | 0.00 | 0.00 | 88 | 1017.8 |
| 20260506092516 | 53 | 322 | 0.0 | 0.9 | 0.00 | 0.00 | 0.00 | 88 | 1017.8 |
| 20260506092016 | 53 | 302 | 0.0 | 1.7 | 0.00 | 0.00 | 0.00 | 88 | 1017.8 |
| 20260506091518 | 53 | 323 | 0.0 | 1.7 | 0.00 | 0.00 | 0.00 | 88 | 1017.7 |
| 20260506091016 | 53 | 320 | 0.0 | 0.9 | 0.00 | 0.00 | 0.00 | 88 | 1017.7 |
| 20260506090536 | 53 | 327 | 0.0 | 1.7 | 0.00 | 0.00 | 0.00 | 87 | 1017.6 |
| 20260506090016 | 53 | 325 | 0.0 | 1.7 | 0.00 | 0.00 | 0.00 | 87 | 1017.6 |
| 20260506085516 | 53 | 323 | 0.0 | 0.9 | 0.00 | 0.00 | 0.00 | 87 | 1017.6 |
| 20260506085016 | 54 | 271 | 0.0 | 0.9 | 0.00 | 0.00 | 0.00 | 87 | 1017.7 |
| 20260506084517 | 54 | 293 | 0.0 | 0.9 | 0.00 | 0.00 | 0.00 | 86 | 1017.8 |
| 20260506084016 | 54 | 312 | 0.0 | 1.7 | 0.00 | 0.00 | 0.00 | 86 | 1017.9 |
| 20260506083516 | 54 | 312 | 0.0 | 1.7 | 0.00 | 0.00 | 0.00 | 86 | 1018.1 |
| 20260506083017 | 54 | 287 | 0.0 | 0.9 | 0.00 | 0.00 | 0.00 | 85 | 1018.1 |
| 20260506082517 | 54 | 297 | 0.9 | 0.9 | 0.00 | 0.00 | 0.00 | 85 | 1018.1 |
| 20260506082017 | 55 | 306 | 0.9 | 1.7 | 0.00 | 0.00 | 0.00 | 84 | 1018.1 |
| 20260506081517 | 55 | 295 | 0.9 | 1.7 | 0.00 | 0.00 | 0.00 | 84 | 1018.0 |
| 20260506081017 | 56 | 289 | 0.9 | 1.7 | 0.00 | 0.00 | 0.00 | 83 | 1018.0 |
| 20260506080517 | 56 | 298 | 0.9 | 1.7 | 0.00 | 0.00 | 0.00 | 83 | 1017.9 |
| 20260506073517 | 56 | 294 | 0.9 | 1.7 | 0.00 | 0.00 | 0.00 | 82 | 1017.7 |
| 20260506073018 | 55 | 297 | 0.9 | 1.7 | 0.00 | 0.00 | 0.00 | 83 | 1017.7 |
| 20260506072517 | 55 | 315 | 0.0 | 1.7 | 0.00 | 0.00 | 0.00 | 83 | 1017.7 |
| 20260506072018 | 56 | 301 | 0.9 | 1.7 | 0.00 | 0.00 | 0.00 | 82 | 1017.6 |
| 20260506071518 | 55 | 304 | 0.9 | 1.7 | 0.00 | 0.00 | 0.00 | 82 | 1017.5 |
| 20260506071018 | 55 | 322 | 0.9 | 1.7 | 0.00 | 0.00 | 0.00 | 82 | 1017.6 |
| 20260506070518 | 55 | 307 | 0.0 | 0.9 | 0.00 | 0.00 | 0.00 | 82 | 1017.5 |
| 20260506062018 | 57 | 322 | 0.0 | 1.7 | 0.00 | 0.00 | 0.00 | 79 | 1016.9 |
| 20260506061518 | 57 | 314 | 0.0 | 0.9 | 0.00 | 0.00 | 0.00 | 79 | 1017.0 |
| 20260506061018 | 57 | 318 | 0.0 | 0.9 | 0.00 | 0.00 | 0.00 | 79 | 1016.9 |
| 20260506060518 | 57 | 314 | 0.0 | 0.9 | 0.00 | 0.00 | 0.00 | 78 | 1016.9 |
| 20260506051016 | 59 | 293 | 0.9 | 1.7 | 0.00 | 0.00 | 0.00 | 75 | 1016.7 |
| 20260506050536 | 59 | 291 | 0.9 | 1.7 | 0.00 | 0.00 | 0.00 | 75 | 1016.7 |
| 20260506045016 | 59 | 294 | 0.9 | 1.7 | 0.00 | 0.00 | 0.00 | 75 | 1016.5 |
| 20260506044556 | 58 | 295 | 0.9 | 1.7 | 0.00 | 0.00 | 0.00 | 76 | 1016.5 |
| 20260506044016 | 58 | 324 | 0.0 | 1.7 | 0.00 | 0.00 | 0.00 | 76 | 1016.4 |
| 20260506043517 | 59 | 308 | 0.0 | 0.9 | 0.00 | 0.00 | 0.00 | 76 | 1016.4 |
| 20260506043017 | 59 | 319 | 0.0 | 1.7 | 0.00 | 0.00 | 0.00 | 75 | 1016.4 |
| 20260506042517 | 59 | 329 | 0.0 | 1.7 | 0.00 | 0.00 | 0.00 | 75 | 1016.3 |
| 20260506042037 | 59 | 345 | 0.0 | 0.9 | 0.00 | 0.00 | 0.00 | 75 | 1016.2 |
| 20260506041516 | 59 | 343 | 0.0 | 1.7 | 0.00 | 0.00 | 0.00 | 74 | 1016.1 |
| 20260506041017 | 60 | 289 | 0.0 | 0.9 | 0.00 | 0.00 | 0.00 | 73 | 1016.0 |
| 20260506040516 | 60 | 327 | 0.0 | 0.9 | 0.00 | 0.00 | 0.00 | 72 | 1015.9 |
| 20260506040017 | 60 | 304 | 0.9 | 1.7 | 0.00 | 0.00 | 0.00 | 72 | 1015.8 |
| 20260506035517 | 60 | 314 | 0.9 | 1.7 | 0.00 | 0.00 | 0.00 | 72 | 1015.8 |
| 20260506035017 | 60 | 323 | 0.0 | 1.7 | 0.00 | 0.00 | 0.00 | 72 | 1015.7 |
| 20260506034537 | 61 | 333 | 0.0 | 0.9 | 0.00 | 0.00 | 0.00 | 71 | 1015.7 |
| 20260506034017 | 61 | 335 | 0.0 | 0.9 | 0.00 | 0.00 | 0.00 | 70 | 1015.6 |
| 20260506033517 | 61 | 318 | 0.0 | 0.9 | 0.00 | 0.00 | 0.00 | 70 | 1015.5 |
| 20260506033017 | 62 | 314 | 0.0 | 0.9 | 0.00 | 0.00 | 0.00 | 69 | 1015.4 |
| 20260506032557 | 62 | 312 | 0.0 | 0.9 | 0.00 | 0.00 | 0.00 | 68 | 1015.4 |
| 20260506032017 | 63 | 357 | 0.0 | 0.9 | 0.00 | 0.00 | 0.00 | 67 | 1015.3 |
| 20260506031517 | 63 | 320 | 0.0 | 0.9 | 0.00 | 0.00 | 0.00 | 66 | 1015.2 |
| 20260506031057 | 64 | 326 | 0.0 | 0.9 | 0.00 | 0.00 | 0.00 | 65 | 1015.2 |
| 20260506030518 | 64 | 324 | 0.0 | 1.7 | 0.00 | 0.00 | 0.00 | 65 | 1015.2 |
| 20260506030018 | 64 | 309 | 0.0 | 1.7 | 0.00 | 0.00 | 0.00 | 64 | 1015.2 |
| 20260506025538 | 65 | 305 | 0.9 | 2.6 | 0.00 | 0.00 | 0.00 | 63 | 1015.1 |
| 20260506025018 | 65 | 302 | 0.0 | 1.7 | 0.00 | 0.00 | 0.00 | 63 | 1015.0 |
| 20260506024518 | 65 | 276 | 0.9 | 1.7 | 0.00 | 0.00 | 0.00 | 62 | 1015.0 |
| 20260506024018 | 66 | 298 | 0.9 | 3.5 | 0.00 | 0.00 | 0.00 | 61 | 1014.9 |
| 20260506023518 | 66 | 278 | 1.7 | 5.2 | 0.00 | 0.00 | 0.00 | 61 | 1014.8 |
| 20260506023018 | 66 | 270 | 0.9 | 1.7 | 0.00 | 0.00 | 0.00 | 61 | 1014.8 |
| 20260506022518 | 66 | 275 | 0.9 | 3.5 | 0.00 | 0.00 | 0.00 | 60 | 1014.8 |
| 20260506022018 | 66 | 275 | 0.9 | 2.6 | 0.00 | 0.00 | 0.00 | 60 | 1014.7 |
| 20260506021518 | 66 | 274 | 1.7 | 4.3 | 0.00 | 0.00 | 0.00 | 60 | 1014.7 |
| 20260506021019 | 66 | 278 | 1.7 | 4.3 | 0.00 | 0.00 | 0.00 | 60 | 1014.6 |
| 20260506020516 | 67 | 280 | 1.7 | 4.3 | 0.00 | 0.01 | 0.00 | 60 | 1014.6 |
| 20260506020016 | 67 | 276 | 1.7 | 3.5 | 0.00 | 0.01 | 0.00 | 59 | 1014.6 |
| 20260506015516 | 68 | 278 | 1.7 | 3.5 | 0.00 | 0.01 | 0.00 | 58 | 1014.5 |
| 20260506015016 | 68 | 286 | 0.9 | 3.5 | 0.00 | 0.01 | 0.00 | 57 | 1014.5 |
| 20260506014536 | 68 | 280 | 1.7 | 4.3 | 0.00 | 0.01 | 0.00 | 58 | 1014.5 |
| 20260506014016 | 68 | 284 | 1.7 | 5.2 | 0.00 | 0.01 | 0.00 | 58 | 1014.4 |
| 20260506013516 | 68 | 281 | 1.7 | 3.5 | 0.00 | 0.01 | 0.00 | 57 | 1014.5 |
| 20260506013016 | 68 | 286 | 0.9 | 1.7 | 0.00 | 0.01 | 0.00 | 57 | 1014.6 |
| 20260506012516 | 68 | 292 | 0.9 | 3.5 | 0.00 | 0.01 | 0.00 | 57 | 1014.5 |
| 20260506012016 | 67 | 284 | 1.7 | 3.5 | 0.00 | 0.01 | 0.00 | 58 | 1014.5 |
| 20260506011516 | 67 | 276 | 1.7 | 3.5 | 0.00 | 0.01 | 0.00 | 58 | 1014.6 |
| 20260506011016 | 67 | 279 | 1.7 | 3.5 | 0.00 | 0.01 | 0.00 | 58 | 1014.6 |
| 20260506010518 | 68 | 283 | 0.9 | 3.5 | 0.00 | 0.01 | 0.00 | 58 | 1014.7 |
| 20260506010017 | 68 | 289 | 0.9 | 4.3 | 0.00 | 0.01 | 0.00 | 58 | 1014.6 |
| 20260506005516 | 68 | 295 | 0.9 | 5.2 | 0.00 | 0.01 | 0.00 | 57 | 1014.6 |
| 20260506005016 | 69 | 309 | 0.9 | 2.6 | 0.00 | 0.01 | 0.00 | 57 | 1014.6 |
| 20260506004516 | 69 | 302 | 0.9 | 4.3 | 0.00 | 0.01 | 0.00 | 56 | 1014.6 |
| 20260506004017 | 70 | 295 | 1.7 | 4.3 | 0.00 | 0.01 | 0.00 | 54 | 1014.5 |
| 20260506003517 | 70 | 281 | 0.9 | 3.5 | 0.00 | 0.01 | 0.00 | 53 | 1014.4 |
| 20260506003036 | 69 | 279 | 1.7 | 3.5 | 0.00 | 0.01 | 0.00 | 54 | 1014.4 |
| 20260506002517 | 69 | 343 | 1.7 | 4.3 | 0.00 | 0.01 | 0.00 | 55 | 1014.5 |
| 20260506002040 | 68 | 285 | 1.7 | 2.6 | 0.00 | 0.01 | 0.00 | 55 | 1014.5 |
| 20260506001517 | 68 | 290 | 1.7 | 4.3 | 0.00 | 0.01 | 0.00 | 55 | 1014.5 |
| 20260506001017 | 68 | 294 | 1.7 | 3.5 | 0.00 | 0.01 | 0.00 | 55 | 1014.5 |
| 20260506000517 | 69 | 282 | 1.7 | 3.5 | 0.00 | 0.01 | 0.00 | 55 | 1014.5 |
| 20260506000017 | 70 | 289 | 1.7 | 4.3 | 0.00 | 0.01 | 0.00 | 53 | 1014.5 |
| 20260505235517 | 70 | 304 | 1.7 | 4.3 | 0.00 | 0.01 | 0.00 | 52 | 1014.4 |
| 20260505235018 | 70 | 274 | 1.7 | 5.2 | 0.00 | 0.01 | 0.00 | 52 | 1014.3 |
| 20260505234518 | 70 | 298 | 1.7 | 6.1 | 0.00 | 0.01 | 0.00 | 54 | 1014.4 |
| 20260505234018 | 70 | 291 | 2.6 | 6.1 | 0.00 | 0.01 | 0.00 | 54 | 1014.5 |
| 20260505233518 | 70 | 248 | 1.7 | 5.2 | 0.00 | 0.01 | 0.00 | 53 | 1014.3 |
| 20260505233018 | 70 | 289 | 2.6 | 6.1 | 0.00 | 0.01 | 0.00 | 54 | 1014.4 |
| 20260505232517 | 70 | 284 | 2.6 | 6.1 | 0.00 | 0.01 | 0.00 | 53 | 1014.3 |
| 20260505232018 | 69 | 252 | 2.6 | 5.2 | 0.00 | 0.01 | 0.00 | 52 | 1014.3 |
| 20260505231518 | 69 | 282 | 2.6 | 7.0 | 0.00 | 0.01 | 0.00 | 53 | 1014.3 |
| 20260505231018 | 69 | 288 | 2.6 | 7.0 | 0.00 | 0.01 | 0.00 | 53 | 1014.3 |
| 20260505230518 | 69 | 262 | 1.7 | 4.3 | 0.00 | 0.01 | 0.00 | 53 | 1014.3 |
| 20260505230018 | 68 | 283 | 1.7 | 6.1 | 0.00 | 0.01 | 0.00 | 55 | 1014.6 |
| 20260505225518 | 68 | 301 | 1.7 | 6.1 | 0.00 | 0.01 | 0.00 | 54 | 1014.5 |
| 20260505225018 | 68 | 283 | 2.6 | 7.0 | 0.00 | 0.01 | 0.00 | 54 | 1014.4 |
| 20260505224518 | 68 | 289 | 2.6 | 8.7 | 0.00 | 0.01 | 0.00 | 55 | 1014.4 |
| 20260505224019 | 68 | 285 | 2.6 | 4.3 | 0.00 | 0.01 | 0.00 | 56 | 1014.6 |
| 20260505223519 | 69 | 286 | 2.6 | 7.8 | 0.00 | 0.01 | 0.00 | 55 | 1014.5 |
| 20260505223019 | 70 | 290 | 2.6 | 7.8 | 0.00 | 0.01 | 0.00 | 54 | 1014.7 |
| 20260505222538 | 70 | 280 | 1.7 | 4.3 | 0.00 | 0.01 | 0.00 | 54 | 1014.5 |
| 20260505222016 | 69 | 265 | 1.7 | 6.1 | 0.00 | 0.01 | 0.00 | 55 | 1014.5 |
| 20260505221536 | 69 | 297 | 2.6 | 5.2 | 0.00 | 0.01 | 0.00 | 55 | 1014.6 |
| 20260505221016 | 68 | 292 | 1.7 | 5.2 | 0.00 | 0.01 | 0.00 | 54 | 1014.5 |
| 20260505220516 | 68 | 286 | 2.6 | 7.0 | 0.00 | 0.01 | 0.00 | 55 | 1014.5 |
| 20260505220016 | 68 | 284 | 2.6 | 7.0 | 0.00 | 0.01 | 0.00 | 55 | 1014.5 |
| 20260505215559 | 68 | 302 | 2.6 | 6.1 | 0.00 | 0.01 | 0.00 | 56 | 1014.5 |
| 20260505215019 | 67 | 285 | 3.5 | 6.1 | 0.00 | 0.01 | 0.00 | 57 | 1014.7 |
| 20260505214556 | 67 | 286 | 1.7 | 6.1 | 0.00 | 0.01 | 0.00 | 56 | 1014.7 |
| 20260505214016 | 67 | 278 | 2.6 | 6.1 | 0.00 | 0.01 | 0.00 | 58 | 1014.8 |
| 20260505213516 | 67 | 283 | 2.6 | 5.2 | 0.00 | 0.01 | 0.00 | 56 | 1015.0 |
| 20260505213017 | 66 | 284 | 1.7 | 6.1 | 0.00 | 0.01 | 0.00 | 58 | 1014.9 |
| 20260505212517 | 66 | 279 | 1.7 | 5.2 | 0.00 | 0.01 | 0.00 | 58 | 1015.1 |
| 20260505212037 | 67 | 282 | 1.7 | 5.2 | 0.00 | 0.01 | 0.00 | 57 | 1015.1 |
| 20260505211516 | 67 | 282 | 2.6 | 6.1 | 0.00 | 0.01 | 0.00 | 56 | 1014.9 |
| 20260505211017 | 67 | 282 | 2.6 | 5.2 | 0.00 | 0.01 | 0.00 | 56 | 1014.6 |
| 20260505210517 | 66 | 283 | 2.6 | 5.2 | 0.00 | 0.01 | 0.00 | 58 | 1014.7 |
| 20260505210017 | 67 | 277 | 2.6 | 7.0 | 0.00 | 0.01 | 0.00 | 58 | 1015.0 |
| 20260505205517 | 67 | 274 | 1.7 | 4.3 | 0.00 | 0.01 | 0.00 | 57 | 1015.0 |
| 20260505205017 | 68 | 299 | 1.7 | 6.1 | 0.00 | 0.01 | 0.00 | 54 | 1014.9 |
| 20260505204517 | 68 | 275 | 2.6 | 6.1 | 0.00 | 0.01 | 0.00 | 54 | 1014.7 |
| 20260505204017 | 68 | 283 | 2.6 | 6.1 | 0.00 | 0.01 | 0.00 | 56 | 1015.0 |
| 20260505203517 | 69 | 293 | 1.7 | 5.2 | 0.00 | 0.01 | 0.00 | 53 | 1014.8 |
| 20260505203017 | 68 | 271 | 1.7 | 5.2 | 0.00 | 0.01 | 0.00 | 55 | 1014.8 |
| 20260505202517 | 67 | 279 | 1.7 | 7.0 | 0.00 | 0.01 | 0.00 | 56 | 1014.8 |
| 20260505202017 | 67 | 295 | 2.6 | 5.2 | 0.00 | 0.01 | 0.00 | 57 | 1014.9 |
| 20260505201518 | 67 | 289 | 2.6 | 6.1 | 0.00 | 0.01 | 0.00 | 56 | 1015.2 |
| 20260505201017 | 68 | 292 | 1.7 | 4.3 | 0.00 | 0.01 | 0.00 | 55 | 1014.8 |
| 20260505200518 | 67 | 291 | 2.6 | 5.2 | 0.00 | 0.01 | 0.00 | 56 | 1014.8 |
| 20260505200018 | 66 | 279 | 2.6 | 6.1 | 0.00 | 0.01 | 0.00 | 57 | 1014.8 |
| 20260505195518 | 67 | 285 | 2.6 | 6.1 | 0.00 | 0.01 | 0.00 | 57 | 1015.1 |
| 20260505195017 | 67 | 295 | 2.6 | 8.7 | 0.00 | 0.01 | 0.00 | 57 | 1014.8 |
| 20260505194518 | 67 | 283 | 2.6 | 7.8 | 0.00 | 0.01 | 0.00 | 57 | 1014.8 |
| 20260505194018 | 66 | 289 | 2.6 | 7.0 | 0.00 | 0.01 | 0.00 | 58 | 1014.9 |
| 20260505193518 | 66 | 284 | 2.6 | 7.0 | 0.00 | 0.01 | 0.00 | 57 | 1014.9 |
| 20260505193018 | 66 | 285 | 1.7 | 3.5 | 0.00 | 0.01 | 0.00 | 57 | 1015.1 |
| 20260505192518 | 66 | 284 | 1.7 | 7.8 | 0.00 | 0.01 | 0.00 | 57 | 1015.2 |
| 20260505192018 | 66 | 280 | 1.7 | 4.3 | 0.00 | 0.01 | 0.00 | 57 | 1015.2 |
| 20260505191518 | 66 | 280 | 2.6 | 5.2 | 0.00 | 0.01 | 0.00 | 57 | 1015.2 |
| 20260505191018 | 66 | 279 | 2.6 | 6.1 | 0.00 | 0.01 | 0.00 | 57 | 1015.0 |
| 20260505190518 | 66 | 303 | 0.9 | 3.5 | 0.00 | 0.01 | 0.00 | 57 | 1015.2 |
| 20260505190019 | 66 | 296 | 1.7 | 7.0 | 0.00 | 0.01 | 0.00 | 57 | 1015.2 |
| 20260505185519 | 66 | 279 | 0.9 | 3.5 | 0.00 | 0.01 | 0.00 | 58 | 1015.0 |
| 20260505185019 | 65 | 285 | 1.7 | 5.2 | 0.00 | 0.01 | 0.00 | 59 | 1015.1 |
| 20260505184516 | 65 | 283 | 2.6 | 7.0 | 0.00 | 0.01 | 0.00 | 59 | 1015.0 |
| 20260505184019 | 65 | 288 | 1.7 | 5.2 | 0.00 | 0.01 | 0.00 | 59 | 1015.1 |
| 20260505183519 | 64 | 296 | 1.7 | 3.5 | 0.00 | 0.01 | 0.00 | 59 | 1015.3 |
| 20260505183016 | 64 | 274 | 1.7 | 4.3 | 0.00 | 0.01 | 0.00 | 58 | 1015.2 |
| 20260505182516 | 64 | 275 | 1.7 | 5.2 | 0.00 | 0.01 | 0.00 | 59 | 1015.1 |
| 20260505182016 | 64 | 282 | 2.6 | 7.0 | 0.00 | 0.01 | 0.00 | 59 | 1015.0 |
| 20260505181516 | 64 | 281 | 1.7 | 5.2 | 0.00 | 0.01 | 0.00 | 60 | 1014.9 |
| 20260505181016 | 63 | 288 | 2.6 | 5.2 | 0.00 | 0.01 | 0.00 | 61 | 1015.1 |
| 20260505180516 | 63 | 291 | 1.7 | 5.2 | 0.00 | 0.01 | 0.00 | 61 | 1015.1 |
| 20260505180016 | 63 | 280 | 1.7 | 6.1 | 0.00 | 0.01 | 0.00 | 62 | 1015.2 |
| 20260505175516 | 62 | 292 | 1.7 | 5.2 | 0.00 | 0.01 | 0.00 | 63 | 1014.9 |
| 20260505175019 | 62 | 276 | 2.6 | 7.8 | 0.00 | 0.01 | 0.00 | 63 | 1014.9 |
| 20260505174517 | 62 | 281 | 2.6 | 4.3 | 0.00 | 0.01 | 0.00 | 64 | 1014.8 |
| 20260505174037 | 61 | 285 | 2.6 | 6.1 | 0.00 | 0.01 | 0.00 | 64 | 1014.6 |
| 20260505173517 | 61 | 281 | 2.6 | 5.2 | 0.00 | 0.01 | 0.00 | 66 | 1014.6 |
| 20260505173017 | 60 | 280 | 1.7 | 4.3 | 0.00 | 0.01 | 0.00 | 67 | 1014.6 |
| 20260505172517 | 59 | 285 | 2.6 | 6.1 | 0.00 | 0.01 | 0.00 | 68 | 1014.8 |
| 20260505172016 | 59 | 291 | 2.6 | 6.1 | 0.00 | 0.01 | 0.00 | 69 | 1014.9 |
| 20260505171517 | 59 | 275 | 2.6 | 5.2 | 0.00 | 0.01 | 0.00 | 69 | 1014.8 |
| 20260505171017 | 59 | 282 | 2.6 | 7.0 | 0.00 | 0.01 | 0.00 | 70 | 1014.8 |
| 20260505170537 | 58 | 282 | 1.7 | 6.1 | 0.00 | 0.01 | 0.00 | 71 | 1014.8 |
| 20260505170017 | 58 | 277 | 1.7 | 4.3 | 0.00 | 0.01 | 0.00 | 71 | 1015.0 |
| 20260505165537 | 58 | 288 | 1.7 | 4.3 | 0.00 | 0.01 | 0.00 | 72 | 1015.0 |
| 20260505165017 | 58 | 324 | 0.9 | 3.5 | 0.00 | 0.01 | 0.00 | 73 | 1014.8 |
| 20260505164517 | 57 | 281 | 1.7 | 3.5 | 0.00 | 0.01 | 0.00 | 73 | 1014.8 |
| 20260505164017 | 57 | 295 | 1.7 | 3.5 | 0.00 | 0.01 | 0.00 | 74 | 1014.7 |
| 20260505163550 | 57 | 311 | 1.7 | 3.5 | 0.00 | 0.01 | 0.00 | 74 | 1014.7 |
| 20260505163029 | 57 | 293 | 2.6 | 4.3 | 0.00 | 0.01 | 0.00 | 74 | 1014.7 |
| 20260505162517 | 57 | 283 | 1.7 | 5.2 | 0.00 | 0.01 | 0.00 | 74 | 1014.6 |
| 20260505162030 | 57 | 298 | 1.7 | 3.5 | 0.00 | 0.01 | 0.00 | 75 | 1014.6 |
| 20260505161518 | 57 | 291 | 2.6 | 4.3 | 0.00 | 0.01 | 0.00 | 75 | 1014.6 |
| 20260505161050 | 56 | 303 | 1.7 | 3.5 | 0.00 | 0.01 | 0.00 | 75 | 1014.6 |
| 20260505160530 | 56 | 296 | 1.7 | 3.5 | 0.00 | 0.01 | 0.00 | 75 | 1014.5 |
| 20260505153045 | 55 | 306 | 1.7 | 2.6 | 0.00 | 0.01 | 0.00 | 78 | 1014.6 |
| 20260505152530 | 55 | 297 | 0.9 | 2.6 | 0.00 | 0.01 | 0.00 | 78 | 1014.5 |
| 20260505152030 | 55 | 303 | 0.9 | 2.6 | 0.00 | 0.01 | 0.00 | 79 | 1014.5 |
| 20260505151531 | 55 | 277 | 0.9 | 3.5 | 0.00 | 0.01 | 0.00 | 79 | 1014.5 |
| 20260505151030 | 54 | 289 | 0.9 | 1.7 | 0.00 | 0.01 | 0.00 | 79 | 1014.5 |
| 20260505150530 | 54 | 292 | 0.9 | 3.5 | 0.00 | 0.01 | 0.00 | 79 | 1014.5 |
| 20260505140536 | 53 | 288 | 0.9 | 2.6 | 0.00 | 0.01 | 0.00 | 81 | 1014.0 |